Torna al catalogo

ARIANE 44LP R/B

AttivoHEO
NORAD 26490·ROCKET BODY·🇫🇷 France

Lanciato Aug 17, 2000 da Guiana Space Centre

Loading…

Prossimi Passaggi (prossime 24 ore)

TLE

AggiornatoSource: Space-Track

Epoca: Sep 14, 2026, 17:40 UTC

1 26490U 00046D   26257.73679301  .00002231  00000-0  84535-3 0  9995
2 26490   3.2460 325.3692 6714591 111.4696 328.9389  3.00445861241436

Traccia ARIANE 44LP R/B in tempo reale con AllMySat

Download on the App Store